SCP
7 6 5 5 5 5 5 5 5 4 3 3 3 3 2 2 1 1 1 1 1 1 1 1 1 1 1 1 1 1 1 1 1 1 1 1 1 1 1 1 1 1 1
6 5 5 5 5 5 5 5 5 5 4 3 3 3 2 2 1 1 1 1 1 1 1 1 1 1 1 1 1 1 1 1 1 1 1 1 1 1 1 1 1 1 1
5 5 5 4 4 4 4 5 6 7 7 5 3 3 2 2 1 1 1 1 1 1 1 1 1 1 1 1 1 2 2 2 2 2 2 2 2 2 2 2 2 2 2
6 6 5 4 3 3 3 4 5 8 9 7 5 3 2 2 1 1 1 1 1 1 1 1 1 2 2 2 2 2 3 3 3 3 3 3 3 3 3 4 4 4 4
7 7 6 5 4 3 3 3 5 7 10 9 6 4 3 2 2 1 1 1 1 1 1 2 2 2 2 2 2 3 3 4 4 4 4 4 4 4 5 5 5 5 5
8 8 8 7 5 3 3 4 5 8 10 10 7 4 3 2 2 1 1 2 2 2 2 2 2 2 2 2 2 3 3 4 4 5 5 5 5 5 6 6 6 6 5
9 9 9 8 6 4 4 5 7 9 11 10 7 5 3 2 2 1 2 2 3 2 2 2 2 2 2 2 2 3 3 3 3 4 5 5 5 5 5 5 5 4 4
9 9 10 9 7 5 4 5 7 11 12 11 7 5 4 3 2 1 2 2 3 3 3 3 3 2 2 2 3 3 3 3 2 2 3 3 3 2 2 2 2 2 2
9 10 10 10 8 7 6 5 7 10 12 11 7 5 4 3 2 1 1 2 2 2 2 2 2 2 2 2 2 3 3 3 2 1 1 1 1 1 1 1 1 1 1
9 10 10 10 10 8 6 6 6 8 10 9 7 5 3 3 2 2 2 2 2 2 2 2 2 2 2 1 2 3 3 3 2 2 1 1 1 1 1 1 1 1 1
9 10 10 10 9 8 7 6 6 7 8 8 7 5 4 3 3 2 2 2 2 2 2 2 2 1 1 1 1 2 3 3 2 2 2 1 1 1 1 1 1 1 1
8 8 9 9 8 8 7 6 5 6 6 6 6 6 6 5 4 3 2 2 2 2 2 2 2 2 2 1 1 1 2 2 2 3 3 2 1 1 1 1 1 1 1
6 7 7 8 8 8 7 6 5 4 4 4 5 6 6 6 5 5 4 3 2 2 2 2 2 2 2 1 1 1 1 1 2 3 3 3 2 1 1 1 1 1 1
6 6 7 9 9 8 8 6 5 4 4 3 4 4 5 5 5 5 5 4 3 3 3 3 3 2 2 2 1 1 1 1 2 3 4 4 3 2 2 2 2 2 2
7 7 8 10 10 10 8 7 6 5 4 4 3 3 3 3 3 4 4 4 4 4 4 4 4 3 2 2 2 2 1 1 1 2 4 4 4 3 2 2 2 2 2
7 7 8 9 10 9 8 7 6 5 3 3 3 2 2 2 2 2 2 2 2 3 5 5 5 4 4 3 3 3 2 1 1 2 3 3 3 3 3 3 3 3 3
5 5 6 7 7 7 6 6 5 4 2 2 1 1 1 1 1 1 0 0 1 2 4 5 5 5 5 4 3 3 2 2 1 1 2 2 3 3 3 3 3 3 3
3 4 4 4 4 4 4 4 4 3 2 1 1 0 0 0 0 0 0 1 1 2 4 5 5 5 5 5 4 3 2 2 1 1 1 2 2 3 3 3 4 4 4
3 3 3 3 3 2 2 3 3 3 2 2 1 0 0 0 0 0 0 1 3 3 3 3 4 5 5 5 4 3 3 2 1 1 1 1 1 2 2 3 4 4 4
3 3 3 2 2 2 2 2 2 2 2 2 1 1 0 0 0 0 0 1 2 3 2 2 2 3 4 4 4 4 3 2 2 1 1 1 1 1 1 2 3 4 5
3 3 2 2 2 1 2 2 2 2 2 2 1 1 1 0 0 1 1 1 1 2 1 1 2 3 3 4 4 3 3 2 2 1 1 1 0 0 0 1 2 3 4
2 2 2 2 2 1 2 2 1 1 1 1 1 1 1 1 1 1 1 1 1 1 1 1 2 3 3 3 3 3 3 2 2 1 1 1 1 0 0 1 1 2 2
2 2 2 2 1 1 1 1 1 1 1 1 1 1 1 1 1 1 1 1 1 1 1 1 2 3 3 3 3 3 2 2 2 1 1 1 1 0 0 1 1 1 1
1 1 1 1 1 1 1 1 1 1 1 1 1 1 1 1 1 1 1 1 1 1 1 1 2 3 3 3 3 2 2 2 1 1 1 1 1 0 0 1 1 1 0
1 1 1 1 1 1 1 1 1 1 0 0 0 1 1 1 1 1 1 1 1 1 1 1 2 3 3 3 2 2 1 1 1 1 1 1 1 0 0 0 0 0 0
1 1 1 1 1 1 1 1 0 0 0 0 0 1 1 1 1 1 1 1 1 1 1 2 2 3 3 3 2 1 1 0 0 1 1 1 1 1 0 0 0 0 0
Wind_Speed
7 6 6 6 6 5 5 5 4 4 4 4 4 3 3 3 3 2 2 2 2 2 2 3 3 3 2 2 3 3 3 3 4 3 2 2 3 3 3 3 3 3 4
7 6 6 6 6 5 5 5 5 4 4 4 3 3 3 3 3 3 3 3 3 3 3 3 3 3 3 3 3 3 3 3 4 4 2 2 4 4 4 4 3 3 3
7 6 5 6 6 6 6 5 5 4 4 4 3 3 3 3 3 3 3 3 4 4 4 4 4 3 3 3 3 3 3 3 3 3 3 2 2 2 2 2 2 2 3
5 6 6 6 6 6 5 5 5 5 4 4 3 3 3 3 3 3 3 3 3 4 4 4 4 4 5 4 4 4 3 3 2 2 2 2 2 2 2 2 2 2 2
5 5 5 5 5 5 4 4 4 4 5 4 3 3 2 2 2 2 2 3 3 3 3 3 4 5 5 5 4 3 3 3 2 2 2 2 2 2 3 3 3 2 2
6 5 4 4 4 4 4 4 4 4 3 3 3 3 3 3 3 3 2 2 2 3 3 3 3 4 5 6 6 6 6 5 5 4 3 3 4 3 3 3 3 2 3
5 4 3 3 3 3 3 3 4 4 3 3 4 4 4 4 4 3 3 3 3 3 3 3 3 3 3 3 3 4 5 7 8 6 5 6 5 5 4 3 4 4 4
4 4 4 3 4 3 3 4 4 4 4 4 4 4 4 4 4 4 4 3 3 3 3 3 3 3 3 3 3 3 3 4 6 5 6 5 5 4 5 5 5 4 2
3 3 3 4 4 3 3 4 3 3 3 3 4 4 4 4 4 4 3 2 2 3 2 2 3 4 5 4 3 3 3 3 3 4 5 4 5 5 4 3 2 2 3
2 2 2 3 3 4 4 4 3 3 4 3 4 4 4 4 4 4 4 2 2 2 2 2 3 4 4 4 4 4 4 4 2 1 1 2 3 4 5 5 5 4 2
1 1 1 1 2 2 2 3 3 3 3 3 3 3 3 4 4 5 4 3 3 3 3 3 3 4 5 5 5 4 6 4 2 2 2 2 2 2 3 3 4 4 4
1 1 0 0 1 1 1 1 2 3 2 2 2 2 2 3 4 5 5 5 5 4 4 3 3 5 5 5 5 5 5 3 2 2 2 3 3 3 3 4 4 4 4
1 1 0 1 1 1 2 2 1 2 3 2 2 2 2 2 3 4 4 4 4 3 3 4 4 4 4 4 5 6 4 3 3 3 4 4 4 4 3 2 2 2 2
1 1 1 1 1 1 0 1 2 2 2 2 2 2 2 2 2 2 2 2 3 3 2 2 3 3 3 4 3 3 3 3 4 4 4 4 2 2 3 3 2 2 1
1 1 1 1 1 0 1 1 2 3 3 3 3 3 3 4 5 5 3 3 3 3 2 1 1 1 1 2 2 2 2 3 4 4 3 3 2 3 3 2 2 2 2
1 1 1 1 0 1 0 1 2 2 3 4 5 4 4 5 5 4 4 4 4 3 3 2 2 3 3 3 3 3 3 4 4 3 3 3 3 3 3 2 2 3 3
2 1 1 1 0 1 1 1 2 3 2 2 3 4 4 4 4 4 4 3 2 3 2 2 3 3 3 3 3 3 4 4 3 3 3 3 3 3 3 3 3 3 3
1 1 1 1 1 1 1 1 1 1 2 3 3 3 4 4 4 3 2 2 0 1 2 3 3 3 3 3 3 3 3 2 2 2 3 3 3 2 2 3 3 4 3
1 1 1 1 1 1 1 1 1 1 1 2 2 3 3 2 1 1 2 2 2 2 3 3 3 3 3 3 3 2 2 2 2 2 2 3 3 2 3 3 3 4 4
1 1 1 0 0 1 1 0 0 1 1 1 2 2 1 0 0 1 1 2 2 2 3 3 3 3 2 2 2 2 2 2 2 1 2 2 2 2 3 3 3 3 3
1 1 1 0 1 1 1 1 1 1 1 1 2 3 2 2 2 2 2 2 3 3 3 3 2 2 2 2 2 2 2 1 1 1 1 1 1 1 2 2 2 3 3
1 1 0 1 1 1 1 1 1 1 1 2 2 2 2 1 2 2 2 2 2 2 2 2 2 2 2 2 2 2 1 1 1 1 1 1 1 1 1 2 2 2 2
1 1 1 1 1 1 1 1 1 1 1 1 1 1 1 1 2 2 2 1 1 1 1 1 1 2 1 1 1 2 2 2 2 2 2 2 2 2 1 2 2 2 2
0 1 1 1 0 0 1 1 1 1 1 1 1 1 1 1 1 1 1 1 1 1 1 1 1 2 2 1 0 1 1 1 1 1 2 2 2 2 2 2 2 2 2
0 1 1 0 0 1 1 1 1 1 1 1 1 1 1 1 0 1 1 1 1 1 1 1 1 1 1 1 1 1 1 0 0 0 1 2 2 2 2 2 2 2 2
0 0 0 1 0 0 0 0 1 1 1 1 1 1 1 1 1 1 1 1 1 1 1 1 0 0 0 0 1 1 1 1 1 1 1 1 2 2 2 2 2 1 1
Wind_Direction
174 177 181 182 180 177 179 187 187 191 193 190 191 189 190 197 199 197 219 227 227 240 242 233 241 237 230 223 206 197 196 181 208 244 226 205 190 199 199 202 207 203 210
175 174 180 181 176 179 191 192 184 188 193 192 186 189 200 204 201 199 219 228 229 242 247 244 247 242 237 223 204 206 207 196 190 222 232 204 209 204 191 194 200 202 207
168 171 174 180 182 186 193 192 187 189 192 191 188 195 205 205 205 210 213 222 226 233 237 235 242 233 239 232 216 212 211 207 189 195 225 214 215 190 168 191 191 201 207
167 170 175 184 186 186 188 187 190 191 190 193 197 203 204 203 208 215 217 225 238 241 239 233 233 225 227 226 224 217 206 199 194 195 213 215 209 197 165 179 203 217 220
166 176 187 188 184 180 181 186 189 190 196 197 194 207 211 207 219 220 224 232 243 256 254 244 240 231 224 217 215 205 192 193 189 199 213 212 213 189 201 193 199 208 234
170 182 185 176 174 179 183 183 185 192 195 190 196 199 210 227 231 219 215 228 234 242 256 259 259 247 236 222 219 212 197 196 202 206 217 217 224 212 203 193 180 183 239
174 175 176 176 178 188 186 182 194 201 197 200 207 201 214 229 224 223 224 218 228 239 248 255 264 264 231 220 227 228 227 222 209 202 212 221 218 210 194 202 200 198 216
165 170 176 180 188 191 194 201 205 204 203 207 213 208 214 231 227 226 226 221 229 238 239 237 235 244 232 215 213 225 240 241 225 216 214 221 219 207 198 204 207 209 233
141 155 168 167 178 182 193 214 216 209 212 219 218 212 212 237 239 228 208 217 240 252 248 247 242 238 242 214 198 218 242 260 254 230 219 217 215 209 192 165 171 176 227
134 158 159 167 181 190 199 218 217 207 214 219 227 216 209 223 233 217 196 193 227 251 264 259 252 245 237 205 197 205 232 248 242 268 254 244 231 221 203 193 190 192 202
149 139 149 168 184 188 202 211 206 203 202 213 215 221 220 222 231 223 201 196 215 231 239 246 249 248 237 223 214 214 226 226 213 211 231 246 244 228 219 214 203 194 200
138 125 83 264 233 166 186 225 212 190 192 208 214 237 241 233 230 228 218 221 220 220 234 234 232 232 232 231 229 232 229 215 197 201 219 232 233 235 235 228 221 221 218
114 87 23 299 266 203 193 203 219 207 197 209 214 234 254 253 249 242 225 227 229 221 233 236 237 235 229 230 230 229 222 206 196 209 223 233 231 229 225 228 233 233 246
141 156 212 235 313 325 273 214 212 217 211 214 230 238 245 250 252 246 235 224 224 219 225 241 246 238 227 229 233 231 222 210 204 219 230 236 232 225 223 216 213 208 237
157 186 218 208 198 223 325 273 243 225 206 202 232 227 228 242 242 227 220 223 217 210 194 195 206 216 224 233 236 237 228 219 222 227 230 235 231 226 227 213 203 195 208
172 211 234 239 219 140 136 328 331 275 247 229 226 224 237 238 240 234 237 240 235 191 151 191 217 219 225 229 229 233 229 229 230 223 223 228 228 222 221 213 204 204 213
183 216 240 255 234 189 209 251 302 326 338 301 263 246 235 237 246 240 230 233 232 164 173 217 222 224 234 238 238 236 236 234 226 217 217 223 225 223 216 213 210 213 219
200 209 220 229 219 218 228 235 246 274 311 317 305 282 260 243 241 241 206 134 82 191 216 227 234 235 237 236 236 238 245 243 226 221 221 220 217 213 216 215 212 211 214
256 247 246 233 225 229 231 224 242 266 281 296 314 315 303 279 273 275 148 158 212 229 236 240 243 241 242 237 231 228 232 236 228 221 224 223 216 207 213 215 214 221 222
309 305 299 258 243 253 232 183 241 266 280 290 290 285 299 46 5 300 221 224 233 239 240 245 249 247 238 230 226 223 225 234 226 222 226 225 218 209 214 218 214 215 223
297 304 308 300 224 234 238 238 245 243 251 267 273 269 241 218 236 246 244 242 240 244 248 246 245 244 241 238 227 211 204 216 218 223 227 232 229 224 216 211 220 219 216
247 276 296 265 249 245 257 257 247 245 248 262 284 295 266 251 249 251 247 251 251 247 243 237 243 237 226 229 226 215 210 220 237 235 231 227 227 234 230 216 221 228 221
263 277 294 298 275 271 295 288 265 249 250 259 268 281 269 266 263 263 266 275 290 289 285 261 252 263 254 229 219 203 206 226 231 220 210 218 224 226 225 231 234 238 242
292 285 262 269 276 280 300 288 268 261 263 274 280 274 263 255 254 264 270 277 271 271 281 278 256 246 242 220 223 235 235 241 233 210 199 206 222 234 235 244 243 238 233
324 330 302 295 336 333 330 321 316 321 313 301 287 273 272 289 300 296 307 318 328 333 331 322 300 286 252 216 196 210 208 215 301 240 196 201 215 224 230 243 253 254 247
9 12 329 330 2 314 338 14 353 343 325 321 323 322 331 342 344 342 340 338 334 330 326 326 336 62 25 265 215 201 183 185 220 219 195 196 208 222 226 238 249 252 250